Torna al catalogo

STARLINK-5450

AttivoComunicazioniVLEO
NORAD 54778·PAYLOAD·🇺🇸 United States

Lanciato Dec 17, 2022 da Cape Canaveral Space Force Station

Loading…

Prossimi Passaggi (prossime 24 ore)

TLE

AggiornatoSource: CelesTrak SupGP

Epoca: Sep 15, 2026, 02:02 UTC

1 54778C 22175W   26258.08520833 -.00020379  00000+0 -60210-3 0  2582
2 54778  53.1568 245.1515 0001393  92.9126  90.1493 15.34400523    13

Traccia STARLINK-5450 in tempo reale con AllMySat

Download on the App Store